Regional Weather Roundup
Issued by NWS

Home | Current Version | Previous Version | Text Only | Print | Product List | Glossary On
Versions: 1 2 3 4 5 6 7 8 9 10 11 12 13 14 15 16 17 18 19 20 21 22 23 24 25 26 27 28 29 30 31 32 33 34 35 36 37 38 39 40 41 42 43 44 45 46 47 48 49 50
000
ASCA42 TJSJ 060710
RWRPR
PUERTO RICO/U.S. VIRGIN ISLANDS HOURLY WEATHER ROUNDUP
NATIONAL WEATHER SERVICE SAN JUAN PR
300 AM AST FRI MAY 06 2016

PRZ001-004-060800-
PUERTO RICO

CITY           SKY/WX    TMP DP  RH WIND       PRES   REMARKS
SAN JUAN LMM   PTCLDY    77  75  94 E5        29.90F
CEIBA          MOCLDY    79  75  89 SE7       29.94F
$$

PRZ006-007-060800-
U.S. VIRGIN ISLANDS

CITY           SKY/WX    TMP DP  RH WIND       PRES   REMARKS
CHARLOTTE AMA  PTCLDY    82  75  78 SE14      29.91F
CHRISTIANSTED  PTCLDY    81  75  83 SE10      29.92F
$$

HOURLY WEATHER ROUNDUP FOR THE NEWS MEDIA

CITY           SKY/WX    TMP DP  RH WIND       PRES   REMARKS
ORLANDO        PTCLDY    65  43  44 NW5       29.83F
NEW YORK       HVY RAIN  49  45  86 NE9       29.70R FOG
NEWARK         CLOUDY    53  44  71 NE8       29.68S
CHICAGO        CLEAR     46  39  76 SW3       29.97F
HARTFORD       CLOUDY    46  43  89 N7        29.65R
BOSTON         CLOUDY    46  43  89 N15       29.67S
DALLAS         CLEAR     64  51  62 E3        30.04F
PHILADELPHIA   CLOUDY    52  47  83 E10       29.66F
LOS ANGELES    MOCLDY    59  55  87 SE13      29.89S
WASHINGTON DC  DRIZZLE   52  49  89 N9        29.67F


USA.gov is the U.S. government's official web portal to all federal, state and local government web resources and services.